Location: Four Corners
(38.2757°N, 122.4608°W)
Time: 12:29:15
(UTC+00:00)

Cosmos 1346 Rocket - Pass Details

Date: 08 December 2019
Orbit: 524 x 555 km, 81.2° (Epoch: 20 January)

Event Time Altitude Azimuth Distance (km) Brightness Sun altitude
Rises 01:38:04 0° 342° (NNW) 2,697 6.3 -9.5°
Reaches altitude 10° 01:40:19 10° 335° (NNW) 1,806 5.5 -9.9°
Maximum altitude 01:44:02 39° 266° (W) 820 4.4 -10.6°
Drops below altitude 10° 01:47:45 10° 197° (SSW) 1,810 6.0 -11.3°
Sets 01:50:00 0° 189° (S) 2,703 6.8 -11.7°
